This is the latest recevied weather packets stored in our database for station/object WD7OO. If no packets are shown the sender has not sent any weather packets the latest 10 day(s).
| Time | Temp. | Humidity | Pressure | Rain* | Wind** | Luminosity | Snow |
|---|---|---|---|---|---|---|---|
| 1777756868 | 11.11° C | 38% | 1018 hPa | 0 mm | - | 409 W/m² | - |
| 1777756563 | 11.11° C | 38% | 1017.8 hPa | 0 mm | - | 419 W/m² | - |
| 1777756260 | 10.56° C | 39% | 1018 hPa | 0 mm | - | 465 W/m² | - |
| 1777755957 | 11.11° C | 35% | 1018.1 hPa | 0 mm | - | 474 W/m² | - |
| 1777755654 | 11.67° C | 36% | 1017.9 hPa | 0 mm | - | 492 W/m² | - |
| 1777755350 | 11.67° C | 35% | 1017.9 hPa | 0 mm | - | 478 W/m² | - |
| 1777755048 | 10.56° C | 35% | 1018 hPa | 0 mm | - | 478 W/m² | - |
| 1777754744 | 11.67° C | 36% | 1018.2 hPa | 0 mm | - | 506 W/m² | - |
| 1777754442 | 11.67° C | 34% | 1018.2 hPa | 0 mm | - | 532 W/m² | - |
| 1777754139 | 11.11° C | 37% | 1018.2 hPa | 0 mm | - | 539 W/m² | - |
| 1777753836 | 11.67° C | 38% | 1018.3 hPa | 0 mm | - | 553 W/m² | - |
| 1777753532 | 11.11° C | 40% | 1018.4 hPa | 0 mm | - | 599 W/m² | - |
| 1777753231 | 11.11° C | 39% | 1018.4 hPa | 0 mm | - | 617 W/m² | - |
| 1777752926 | 11.11° C | 38% | 1018.6 hPa | 0 mm | - | 638 W/m² | - |
| 1777752623 | 11.67° C | 37% | 1018.4 hPa | 0 mm | - | 626 W/m² | - |
| 1777752319 | 10.56° C | 40% | 1018.5 hPa | 0 mm | - | 686 W/m² | - |
| 1777752017 | 10.56° C | 40% | 1018.6 hPa | 0 mm | - | 660 W/m² | - |
| 1777751714 | 11.11° C | 41% | 1018.8 hPa | 0 mm | - | 636 W/m² | - |
| 1777751410 | 11.11° C | 39% | 1018.8 hPa | 0 mm | - | 643 W/m² | - |
| 1777751107 | 10.56° C | 42% | 1018.7 hPa | 0 mm | - | 659 W/m² | - |
| 1777750803 | 11.11° C | 41% | 1018.9 hPa | 0 mm | - | 689 W/m² | - |
| 1777750501 | 10° C | 41% | 1018.9 hPa | 0 mm | - | 721 W/m² | - |
| 1777750196 | 10° C | 43% | 1018.9 hPa | 0 mm | - | 117 W/m² | - |
| 1777749893 | 10.56° C | 38% | 1019 hPa | 0 mm | - | 459 W/m² | - |
| 1777749590 | 11.67° C | 42% | 1019 hPa | 0 mm | - | 573 W/m² | - |
* Rain latest hour (hover to see other rain measurements)
** Current wind speed in m/s (hover to see current wind gust speed)